Regional Weather Roundup
Issued by NWS

Home | Current Version | Previous Version | Graphics & Text | Print | Product List | Glossary On
Versions: 1 2 3 4 5 6 7 8 9 10 11 12 13 14 15 16 17 18 19 20 21 22 23 24 25 26 27 28 29 30 31 32 33 34 35 36 37 38 39 40 41 42 43 44 45 46 47 48 49 50
000
ASUS45 KBOU 180407
RWRCO

WEATHER ROUNDUP FOR COLORADO
NATIONAL WEATHER SERVICE DENVER/BOULDER CO
1000 PM MDT THU AUG 17 2017

NOTE: "FAIR" INDICATES FEW OR NO CLOUDS BELOW 12000 FEET WITH NO
SIGNIFICANT WEATHER AND/OR OBSTRUCTIONS TO VISIBILITY.

COZ001>005-013-030-031-180500-
...NORTHWEST COLORADO...

CITY           SKY/WX    TMP DP  RH WIND       PRES   REMARKS
CRAIG          FAIR      65  37  35 S6        30.24R
HAYDEN         MOCLDY    70  36  28 N9        30.27R
MEEKER         FAIR      60  43  53 NE3       30.26R
RABBIT EARS PA MOCLDY    52  32  46 W10G18    30.55R
STEAMBOAT SPGS MOCLDY    61  40  44 W3        30.29R
WALDEN         MOCLDY    54  34  47 N8        30.38R
$$

COZ006>008-011-180500-
...WEST CENTRAL VALLEYS...

CITY           SKY/WX    TMP DP  RH WIND       PRES   REMARKS
GRAND JUNCTION FAIR      74  31  20 SE5       30.12R
MONTROSE       FAIR      67  40  37 SE12      30.22R
EAGLE          FAIR      64  37  36 E9        30.30R
RIFLE          FAIR      68  38  33 NE5       30.20R
DELTA          FAIR      74  34  23 NE10      30.17R
NUCLA          FAIR      68  28  22 E12       30.25R
$$

COZ017>023-064>068-180500-
...SOUTHWEST COLORADO...

CITY           SKY/WX    TMP DP  RH WIND       PRES   REMARKS
DURANGO        FAIR      63  35  35 CALM      30.29R
CORTEZ         FAIR      62  37  39 E8        30.22R
PAGOSA SPRINGS FAIR      60  32  35 W3        30.38R
TELLURIDE      FAIR      56  34  43 SE7       30.50R
WOLF CREEK PAS MOCLDY    46  28  49 CALM      30.72S
$$

COZ009-010-012-014-032>034-037-058>063-180500-
...CENTRAL COLORADO...

CITY           SKY/WX    TMP DP  RH WIND       PRES   REMARKS
ASPEN          FAIR      54  40  59 SW9       30.38R
BUENA VISTA    FAIR      54  35  48 NW8       30.39R
COPPER MTN     FAIR      50  30  46 W14       30.67R
BERTHOUD PASS  FAIR      41  36  81 NW36G41   30.64S
COTTONWOOD PAS FAIR      57  30  35 W6        30.52S
GUNNISON       FAIR      57  38  48 N3        30.38R
KREMMLING      FAIR      59  43  55 CALM      30.34R
LEADVILLE      FAIR      42  34  73 NE7       30.51R
MONARCH PASS   FAIR      48  27  43 NW7       30.78R
SALIDA         FAIR      62  35  37 W8        30.44R
SUNLIGHT       FAIR      50  28  43 W6        30.62R
WILKERSON PASS FAIR      50  30  46 NW7       30.64R
$$

COZ069>075-180500-
...SAN LUIS VALLEY/SANGRE DE CRISTO MOUNTAINS...

CITY           SKY/WX    TMP DP  RH WIND       PRES   REMARKS
ALAMOSA        FAIR      63  38  39 NW5       30.35R
DEL NORTE      FAIR      59  36  41 W12       30.40S
LA VETA PASS   NOT AVBL
SAGUACHE       FAIR      57  37  47 N10       30.39R
$$

COZ035-036-038>040-180500-
...NORTHERN COLORADO FRONT RANGE...

CITY           SKY/WX    TMP DP  RH WIND       PRES   REMARKS
DENVER INTL AP FAIR      63  45  51 S10       30.13R
DMNS CITY PARK   N/A     67  45  44 E9        30.14R
AURORA         PTCLDY    64  46  51 S8        30.16R
FRONT RANGE AP FAIR      66  46  48 SE10G18   30.15S
ERIE MUNI ARPT FAIR      67  39  35 S3        30.16S
BOULDER MUN AP FAIR      72  36  26 CALM      30.13R
CENTENNIAL     FAIR      67  40  37 SW9       30.17R
BROOMFIELD     PTCLDY    73  37  27 W5        30.16R
FORT COLLINS   FAIR      70  51  51 CALM      30.11S
LONGMONT       FAIR      66  47  48 NW5       30.13R
$$

COZ041-046-047-076>085-087-088-180500-
...PIKES PEAK/PALMER DIVIDE AND SOUTHERN FOOTHILLS...

CITY           SKY/WX    TMP DP  RH WIND       PRES   REMARKS
COLO. SPRINGS  FAIR      68  45  43 CALM      30.25R
A. F. ACADEMY  FAIR      57  46  66 NE6       30.25R
SCHRIEVER AFB  FAIR      62  44  52 W6        30.24S
CHEYENNE MTN   FAIR      67  35  29 W6        30.23S
ELLICOTT       FAIR     N/A N/A N/A CALM      30.22R
FALCON         FAIR      58  42  53 W7        30.29R
FORT CARSON    FAIR      64  48  55 SW7       30.21R
LIMON          FAIR      54  52  93 NW3       30.16R
MONUMENT HILL  FAIR      55  43  62 SW8       30.29S
CANON CITY     CLEAR     64  52  63 CALM      30.20R
WALSENBURG     FAIR      66  45  45 SW5       30.26S
TRINIDAD       FAIR      64  45  49 E3        30.22R
$$

COZ042>045-048>051-090-091-180500-
...NORTHEAST COLORADO...

CITY           SKY/WX    TMP DP  RH WIND       PRES   REMARKS
GREELEY ARPT   FAIR      63  55  75 CALM      30.09R
AKRON          FAIR      67  46  47 SW8       30.08R
BURLINGTON     FAIR      61  52  72 E3        30.07R
WRAY           NOT AVBL
YUMA           FAIR      59  43  55 SW3       30.04S
STERLING       FAIR      63  54  72 E3        30.02R
HOLYOKE        FAIR      63  55  77 W5        30.01S
FORT MORGAN    FAIR      67  43  41 W6        30.08R
$$

COZ086-089-092>099-180500-
...SOUTHEAST COLORADO...

CITY           SKY/WX    TMP DP  RH WIND       PRES   REMARKS
PUEBLO         FAIR      68  48  48 NW6       30.13R
LA JUNTA       FAIR      82  42  24 W9G20     30.09F
LAMAR          FAIR      63  55  75 SW8       30.04R
SPRINGFIELD      N/A     64  59  83 S12       30.12R
$$



USA.gov is the U.S. government's official web portal to all federal, state and local government web resources and services.